Location: Boiro
(42.6475°N, 8.8834°W)
Time: 00:07:01
(UTC+01:00)

Altair - Pass Details

Date: 03 December 2021
Orbit: 1501 x 1683 km, 47.2° (Epoch: 18 January)

Event Time Altitude Azimuth Distance (km) Brightness Sun altitude
Rises 18:43:23 0° 256° (WSW) 4,757 12.3 -7.6°
Reaches altitude 10° 18:46:31 10° 258° (WSW) 3,750 11.1 -8.1°
Maximum altitude 18:55:59 76° 344° (NNW) 1,568 7.6 -9.7°
Enters shadow 19:04:24 13° 70° (ENE) 3,400 8.6 -11.1°
Drops below altitude 10° 19:05:12 10° 71° (ENE) 3,658 - -11.3°
Sets 19:08:14 0° 73° (ENE) 4,636 - -11.8°
